Regional Weather Roundup
Issued by NWS

Home | Current Version | Previous Version | Text Only | Print | Product List | Glossary Off
Versions: 1 2 3 4 5 6 7 8 9 10 11 12 13 14 15 16 17 18 19 20 21 22 23 24 25 26 27 28 29 30 31 32 33 34 35 36 37 38 39 40 41 42 43 44 45 46 47 48 49 50

000
ASUS43 KLOT 282209
RWRIL

ILLINOIS REGIONAL WEATHER ROUNDUP
NATIONAL WEATHER SERVICE CHICAGO/ROMEOVILLE IL
500 PM CDT FRI APR 28 2017

NOTE: "FAIR" INDICATES FEW OR NO CLOUDS BELOW 12,000 FEET WITH NO
SIGNIFICANT WEATHER AND/OR OBSTRUCTIONS TO VISIBILITY.

* THESE STATIONS ARE NOT UNDER NWS QUALITY CONTROL. THEY ALSO MAY NOT
  REPORT WEATHER SUCH AS PRECIPITATION OR FOG.

ILZ001-002-007-009-015-016-024-282300-
NORTHWEST ILLINOIS

CITY           SKY/WX    TMP DP  RH WIND       PRES   REMARKS
MOLINE         CLOUDY    50  46  86 NE5       29.83R
STERLING*      CLOUDY    52  50  93 NE7       29.84R FOG
SAVANNA*       HVY RAIN  46  45  94 N8        29.87R
$$

ILZ003-004-008-010-011-017-018-282300-
NORTH CENTRAL ILLINOIS

CITY           SKY/WX    TMP DP  RH WIND       PRES   REMARKS
ROCKFORD       DRIZZLE   52  46  80 NE9       29.89R
FREEPORT*      CLOUDY    48  43  83 NE8       29.89R
ROCHELLE*      CLOUDY    53  50  91 E8        29.85S
DE KALB*       CLOUDY    56  49  75 E9        29.85S
PERU*          CLOUDY    57  50  77 E8        29.83R
$$

ILZ005-006-012>014-019>023-282300-
NORTHEAST ILLINOIS

CITY           SKY/WX    TMP DP  RH WIND       PRES   REMARKS
CHICAGO-OHARE  CLOUDY    58  44  60 E10       29.86R
CHICAGO-MIDWAY PTSUNNY   57  46  66 E8        29.87R
AURORA         CLOUDY    60  49  66 SE12      29.85R
LANSING*       CLOUDY    60  50  70 SE6       29.85R
JOLIET*        CLOUDY    60  51  71 SE7       29.86R
WAUKEGAN       CLOUDY    48  41  76 E9        29.87F
DUPAGE AIRPORT CLOUDY    59  49  69 E10       29.84R HAZE
KANKAKEE*      DRIZZLE   59  51  75 S7        29.85R
WHEELING       PTSUNNY   53  45  74 NE8       29.89R
MORRIS*        CLOUDY    59  50  70 E8        29.84R
ROMEOVILLE*    CLOUDY    59  52  76 SE10      29.86R
NORTHERLY ISL    N/A     49  45  86 N6          N/A
$$

LMZ740>746-282300-
SOUTHERN LAKE MICHIGAN

STATION/POSITION SKY/WX   TEMP    WIND        PRES    VSBY  WAVE
                          AIR SEA DIR/SP/G                  HT/PER
                          (F)     (DEG/KT/KT) (MB)    (MI)  (FT/S)
SOUTHERN BUOY              42 42   40/  6/  8 1013.8          0
HARRISON CRIB              47      50/ 15/ 16   N/A
BURNHAM HARBOR             49      10/  4/  9   N/A
CALUMET HARBOR             48      10/  8/ 11 1010.5F
BURNS HARBOR               62     140/  8/ 13 1011.2F
MICHIGAN CITY              61     120/  6/  8   N/A
MICHIGAN CITY 6N           46 47                N/A           1/ 2
ST. JOSEPH                 56 48  140/  4/  6 1011.1          1/ 2
$$

ILZ025>027-034>036-040-047-049-050-058-095>099-282300-
WEST-CENTRAL ILLINOIS

CITY           SKY/WX    TMP DP  RH WIND       PRES   REMARKS
QUINCY         CLOUDY    60  55  83 SE7       29.76R
GALESBURG*     CLOUDY    56  53  88 E5        29.80R
MACOMB*        CLOUDY    60  55  85 SE8       29.81R
JACKSONVILLE*  CLOUDY    57  54  89 SE15      29.77F
PITTSFIELD*    CLOUDY    58  55  91 SE9       29.79R
$$

ILZ028>032-037-038-041>044-048-051>054-059>061-282300-
CENTRAL ILLINOIS

CITY           SKY/WX    TMP DP  RH WIND       PRES   REMARKS
PONTIAC        CLOUDY    59  56  88 S8        29.85R
BLOOMINGTON    LGT RAIN  57  53  86 SE7       29.84R
DECATUR        LGT RAIN  55  54  96 SE12      29.83R
PEORIA         CLOUDY    59  54  83 SE8       29.81R
LACON*         CLOUDY    59  53  79 S7        29.81R
LINCOLN*       CLOUDY    58  56  91 SE5       29.81S
SPRINGFIELD    CLOUDY    59  55  87 S18       29.79F
TAYLORVILLE    CLOUDY    55  54  97 SE6       29.82R FOG
$$

ILZ033-039-045-046-055>057-062-063-282300-
EAST-CENTRAL ILLINOIS

CITY           SKY/WX    TMP DP  RH WIND       PRES   REMARKS
CHAMPAIGN      LGT RAIN  55  52  89 SE14      29.86R FOG
RANTOUL*       RAIN      56  55  93 SE9       29.83R
MATTOON        TSTM      54  54 100 E7        29.80F FOG
PARIS*         TSTM      54  54  98 CALM      29.85R
$$

ILZ079-100>102-282300-
SOUTHWEST ILLINOIS

CITY           SKY/WX    TMP DP  RH WIND       PRES   REMARKS
ALTON          DRIZZLE   55  55 100 E6        29.78F FOG
BELLEVILLE     CLOUDY    57  57 100 E8        29.76F FOG
CAHOKIA*       CLOUDY    58  55  90 E7        29.78R
SPARTA*        DRIZZLE   59  59 100 NE8       29.75F
$$

ILZ064>066-069>071-074>076-080>082-084>086-088>090-092>094-282300-
SOUTH-CENTRAL ILLINOIS

CITY           SKY/WX    TMP DP  RH WIND       PRES   REMARKS
CARBONDALE     CLOUDY    68  66  93 SW6       29.76R
CAIRO*         CLOUDY    75  69  81 S13       29.76S
EFFINGHAM*     TSTM      57  57 100 CALM      29.82F
MARION         CLOUDY    70  68  94 S7        29.77R
MT. VERNON     LGT RAIN  60  59  96 VRB5      29.78R FOG
CENTRALIA*     CLOUDY    58  58  99 N6        29.80R
SALEM*         RAIN      58  56  93 N9        29.80S
METROPOLIS*    CLOUDY    76  69  79 S7        29.78S
$$

ILZ067-068-072-073-078-083-087-091-282300-
SOUTHEAST ILLINOIS

CITY           SKY/WX    TMP DP  RH WIND       PRES   REMARKS
LAWRENCEVILLE  TSTM      61  59  93 E17       29.66F
FLORA*         CLOUDY    59  58  96 N8G16     29.80R
FAIRFIELD*       N/A     62  60  95 CALM      29.76R
HARRISBURG*    CLOUDY    72  67  84 S10G17    29.76R
ROBINSON*      TSTM      57  56  96 N8G20     29.81R VSB 1
CARMI*         CLOUDY    74  67  78 S20G28    29.75S
$$

ABBREVIATIONS USED IN REMARKS
   TC - TEMPERATURE IN CELSIUS
  WCI - WIND CHILL INDEX
   HX - HEAT INDEX
  VSB - VISIBILITY
$$





USA.gov is the U.S. government's official web portal to all federal, state and local government web resources and services.